Regional Weather Roundup
Issued by NWS

Home | Current Version | Previous Version | Graphics & Text | Print | Product List | Glossary On
Versions: 1 2 3 4 5 6 7 8 9 10 11 12 13 14 15 16 17 18 19 20 21 22 23 24 25 26 27 28 29 30 31 32 33 34 35 36 37 38 39 40 41 42 43 44 45 46 47 48 49 50
673
ASUS43 KMPX 281301
RWRMN
WEATHER ROUNDUP FOR MINNESOTA
NATIONAL WEATHER SERVICE TWIN CITIES/CHANHASSEN MN
800 AM CDT THU JUL 28 2016


NOTE: "FAIR" INDICATES FEW OR NO CLOUDS BELOW 12,000 FEET WITH NO
SIGNIFICANT WEATHER AND/OR OBSTRUCTIONS TO VISIBILITY. N/A MEANS
CURRENT SKY AND/OR WEATHER CONDITIONS ARE NOT AVAILABLE.

MNZ060>063-068>070-281400-
   Twin Cities Metro

CITY           SKY/WX    TMP DP  RH WIND       PRES   REMARKS
TWIN CITIES    CLOUDY    65  61  87 N9G20     30.02R
ST PAUL        CLOUDY    67  62  84 N9        30.01S
CRYSTAL        CLOUDY    63  59  87 N9        30.02R
BLAINE         CLOUDY    64  64 100 N7        30.03R FOG
LAKEVILLE      CLOUDY    64  64 100 N7        30.00F
EDEN PRAIRIE   CLOUDY    66  62  87 N9        30.01R
LAKEVILLE      CLOUDY    64  64 100 N7        30.00F
SOUTH ST PAUL  CLOUDY    67  63  85 N9        30.00S
LAKE ELMO      CLOUDY    64  63  94 N3        30.03R
$$
MNZ001>005-007-008-013>017-022>024-027-028-281400-
   Northwest Minnesota

CITY           SKY/WX    TMP DP  RH WIND       PRES   REMARKS
HALLOCK        SUNNY     59  55  88 NE5       30.15R
ROSEAU         SUNNY     57  52  82 NE6       30.14F
WARROAD        SUNNY     57  54  88 N6        30.15S
THIEF RVR FALL SUNNY     61  55  81 NE9       30.14R
CROOKSTON      SUNNY     63  57  82 E8        30.12S
FOSSTON        PTSUNNY   63  59  88 NE5       30.12R
DETROIT LAKES  MOSUNNY   64  61  88 E3        30.11R
MOORHEAD       CLOUDY    64  63  94 CALM      30.09F
PARK RAPIDS    CLOUDY    65  60  84 CALM      30.10S
MAHNOMEN       FAIR      62  59  90 NE5       30.11R
$$
MNZ006-009>011-018-025>026-281400-
   North Central Minnesota

CITY           SKY/WX    TMP DP  RH WIND       PRES   REMARKS
BAUDETTE       MOSUNNY   59  53  80 N7        30.13S
FLAG ISLAND    CLOUDY    63  54  72 NE9       30.13S
INTL FALLS     MOSUNNY   63  55  75 NE6       30.11S
WASKISH        MOSUNNY   61  55  82 NE3       30.12R
BIG FORK       SUNNY     61  55  82 N3        30.11S
LONGVILLE      FOG       63  61  94 CALM      30.10R VSB<1/4
GRAND RAPIDS   FOG       60  59  96 N3        30.12R VSB 1/4
ORR            SUNNY     57  55  94 CALM      30.09R
COOK           SUNNY     61  57  88 CALM      30.11R
WALKER         PTSUNNY   61  59  91 N3        30.11R
$$
MNZ012-019>021-037-281400-
   Northeast Minnesota

CITY           SKY/WX    TMP DP  RH WIND       PRES   REMARKS
DULUTH         SUNNY     64  55  72 NE7       30.08S
ELY            SUNNY     57  57 100 CALM      30.11R
HIBBING        SUNNY     59  57  93 CALM      30.10R
EVELETH        SUNNY     60  59  97 CALM      30.10S
DULUTH HARBOR  MOSUNNY   64  59  82 NE8       30.07S
TWO HARBORS    SUNNY     68  57  68 NE3       30.06R
SILVER BAY     SUNNY     64  55  72 N5        30.06S
GRAND MARAIS     N/A     67  51  56 NE10      30.09R
$$
MNZ029>031-032-039>041-046>048-054>057-064-281400-
   West Central Minnesota

CITY           SKY/WX    TMP DP  RH WIND       PRES   REMARKS
FERGUS FALLS   PTSUNNY   66  64  94 E5        30.10S
WHEATON        CLOUDY    63  63 100 CALM      30.11S
MORRIS         CLOUDY    64  63  94 CALM      30.08R
ALEXANDRIA     CLOUDY    65  61  87 NE9       30.10R
ELBOW LAKE     FAIR      64  62  93 NE6       30.09S
WADENA         MOSUNNY   63  63 100 CALM      30.10R
GLENWOOD       CLOUDY    63  63 100 NE9       30.09S
APPLETON       MOSUNNY   64  61  88 N5        30.07R
BENSON         CLOUDY    64  57  77 CALM      30.08R
ORTONVILLE     CLOUDY    64  61  88 CALM      30.08S
MADISON        CLOUDY    64  63  94 N5        30.08R
WILLMAR        FAIR      64  61  88 N7        30.08R
$$
MNZ033>034-036-042>043-049>051-058-059-281400-
   Central Minnesota

CITY           SKY/WX    TMP DP  RH WIND       PRES   REMARKS
ST CLOUD       CLOUDY    62  59  90 NE5       30.06R
SAUK CENTRE    PTSUNNY   63  59  87 N6        30.09R
PAYNESVILLE    CLOUDY    62  62 100 N5        30.07S
AITKIN         MOSUNNY   63  57  82 E3        30.07S
PINE RIVER     MOSUNNY   63  63 100 CALM      30.13R
BRAINERD       PTSUNNY   64  58  80 NE3       30.09R
STAPLES        MOSUNNY   63  61  94 NE3       30.10R
LONG PRAIRIE   FAIR      63  59  88 N5        30.09R
LITTLE FALLS   CLOUDY    63  57  82 CALM      30.09R
LITCHFIELD     CLOUDY    64  63  94 N6        30.06R
BUFFALO        CLOUDY    61  58  88 N5        30.06R
MAPLE LAKE     CLOUDY    63  60  91 NE6       30.06R
HUTCHINSON     CLOUDY    64  63  95 N8        30.05S
$$
MNZ037-044-045-052-053-281400-
   East Central Minnesota

CITY           SKY/WX    TMP DP  RH WIND       PRES   REMARKS
PRINCETON        N/A     63  57  82 N5        30.06R
MORA           PTSUNNY   59  54  82 CALM      30.08R
CAMBRIDGE      MOSUNNY   64  55  72 NE3       30.04R
RUSH CITY      LGT RAIN  61  58  89 NE9       30.05R
MOOSE LAKE     MOSUNNY   61  55  82 NE5       30.06S
HINCKLEY       FAIR      61  57  88 NE6       30.06S
CLOQUET        SUNNY     63  54  72 NE5       30.08R
MCGREGOR       SUNNY     61  55  82 CALM      30.09R
$$
MNZ071>073-080-081-089-090-097-098-281400-
   Southwest Minnesota

CITY           SKY/WX    TMP DP  RH WIND       PRES   REMARKS
MONTEVIDEO     MOSUNNY   63  63 100 NE6       30.09R
GRANITE FALLS  CLOUDY    65  63  93 N8        30.08R
CANBY          CLOUDY    64  62  91 N6        30.09S
MARSHALL       CLOUDY    63  61  93 N7        30.07R
REDWOOD FALLS  CLOUDY    64  60  87 N7        30.05R
OLIVIA         CLOUDY    63  59  88 N5        30.05R
PIPESTONE      CLOUDY    63  61  94 N5        30.07S
WINDOM         CLOUDY    63  63 100 N6        30.05R FOG
WORTHINGTON    CLOUDY    61  60  97 N7        30.07R
JACKSON        CLOUDY    64  61  88 N7        30.05R
TRACY          CLOUDY    63  62  98 N6        30.07R FOG
SLAYTON        CLOUDY    62  61  97 N7        30.07S FOG
$$
MNZ065>067-074>077-082>085-091>093-281400-
   South Central Minnesota

CITY           SKY/WX    TMP DP  RH WIND       PRES   REMARKS
MANKATO        CLOUDY    64  59  82 N8        30.02R
NEW ULM        CLOUDY    64  63  94 NE7       30.04R
ST JAMES       CLOUDY    61  59  94 N5        30.04R
FAIRMONT       CLOUDY    64  59  82 N6        30.02R
GLENCOE        CLOUDY    65  64  97 N8        30.02F
FARIBAULT      CLOUDY    66  63  88 N7        30.01S
OWATONNA       CLOUDY    66  63  88 N8        30.00S
WASECA         CLOUDY    63  61  94 N10       30.01S
ALBERT LEA     CLOUDY    66  64  94 N9        29.99S
$$
MNZ078>079-086>088-094>096-281400-
   Southeast Minnesota

CITY           SKY/WX    TMP DP  RH WIND       PRES   REMARKS
ROCHESTER      CLOUDY    67  65  93 N10       29.98S
RED WING       CLOUDY    68  64  88 CALM      29.97R
STANTON        CLOUDY    66  63  88 N8        29.98S
DODGE CENTER   CLOUDY    64  63  94 N8        29.99S FOG
WINONA         CLOUDY    70  64  83 NE8       29.95R
AUSTIN         CLOUDY    64  63  94 N5        29.98R
PRESTON        CLOUDY    66  63  91 N7        29.96S
$$
ABBREVIATIONS USED IN REMARKS
   TC - TEMPERATURES IN CELSIUS
  WCI - WIND CHILL INDEX
   HX - HEAT INDEX
  VSB - VISIBILITY
$$




USA.gov is the U.S. government's official web portal to all federal, state and local government web resources and services.